Location: Fours
(44.3167°N, 6.7000°E)
Time: 04:07:57
(UTC+00:00)

Lacrosse 5 rocket - Pass Details

Date: 30 November 2020
Orbit: 461 x 634 km, 57.0° (Epoch: 24 January)

Event Time Altitude Azimuth Distance (km) Brightness Sun altitude
Rises 18:28:17 0° 282° (WNW) 2,507 5.8 -26.6°
Reaches altitude 10° 18:31:11 10° 306° (NW) 1,619 4.3 -27.2°
Enters shadow 18:32:20 14° 324° (NW) 1,405 3.7 -27.4°
